Location: Forli
(44.2227°N, 12.0407°E)
Time: 01:03:27
(UTC+02:00)

PCSat - Pass Details

Date: 22 April 2026
Orbit: 781 x 790 km, 67.1° (Epoch: 19 May)

Event Time Altitude Azimuth Distance (km) Brightness Sun altitude
Rises 20:56:16 0° 337° (NNW) 3,294 13.7 -9.3°
Reaches altitude 10° 21:00:15 10° 5° (N) 2,362 12.3 -10.0°
Maximum altitude 21:02:36 13° 31° (NNE) 2,173 11.8 -10.3°
Drops below altitude 10° 21:04:56 10° 57° (ENE) 2,358 11.8 -10.7°
Enters shadow 21:07:10 - 76° (ENE) 2,819 12.0 -11.1°
